SURCAL 150B

Last updated on Fri Dec 29 2023 00:03:35 GMT+0000 (Coordinated Universal Time)

1 02909U 67053J 23361.84049532 .00014368 00000+0 21567-2 0 9995 2 02909 69.9435 12.2171 0007960 300.8609 59.1754 14.74634668945570

Satellite not in orbit

SURCAL 150B